Location: Killam
(52.7910°N, 111.8608°W)
Time: 14:37:31
(UTC+00:00)

BlueWalker 3 - Pass Details

Date: 24 January 2026
Orbit: 451 x 461 km, 53.2° (Epoch: 16 February)

Event Time Altitude Azimuth Distance (km) Brightness Sun altitude
Rises 03:10:59 0° 251° (WSW) 2,454 6.4 -29.0°
Reaches altitude 10° 03:13:06 10° 250° (WSW) 1,582 5.2 -29.3°
Enters shadow 03:14:04 17° 249° (WSW) 1,202 4.5 -29.4°
